sat.trackr.live / text

‹ back to catalog

HULIANWANG DIGUI-17

NORAD 62977 · 2025-030G

PAYLOAD ACTIVE UNKNOWN

§ Identity

Operator
Country
PRC
Launch date
2025-02-11
Launch site
WSC
Launch vehicle
Mass (kg)
RCS (m²)

External: N2YO · Heavens-Above · Gunter

§ Orbital elements

Epoch: 2026-09-22T22:02:34.702080Z

Period
108.33 min
Inclination
50.0051°
Eccentricity
0.0000578
Mean motion
13.29328837 rev/d
Perigee alt
1,148.9 km
Apogee alt
1,149.7 km
Semi-major
7,527.4 km
B*
6.2712e-5
RAAN
245.0908°
Arg perigee
44.2644°
Mean anomaly
315.8274°
Rev number
7,886

§ Raw data

HULIANWANG DIGUI-171 62977U 25030G   26265.91845720 -.00000095  00000+0  62712-4 0  99942 62977  50.0051 245.0908 0000578  44.2644 315.8274 13.29328837 78861

JSON: /api/v1/satellites/62977 · /tle

For live sub-satellite position, see the globe view (requires WebGL).

§ Visibility from observer

Set your observer location to see the next 7 days of passes ≥ 10°. The values pass through the URL so the page stays shareable.

No JS? Fill the form by hand. The geolocation button needs JavaScript.